Location: Calgary
(51.0833°N, 114.0833°W)
Time: 21:19:12
(UTC-06:00)

OTV 5 (USA 277) - Visible Passes

Search period start: 23 September 2017 00:00
Search period end: 03 October 2017 00:00
Orbit: 404 x 417 km, 43.0° (Epoch: 07 September)

Date Brightness Start Highest point End Pass type
(mag) Time Alt. Az. Time Alt. Az. Time Alt. Az.
23 Sep ? 05:44:57 17° S 05:45:31 18° S 05:47:51 10° SE visible
24 Sep ? 04:56:18 12° SE 04:56:18 12° SE 04:56:44 10° SE visible
24 Sep ? 06:29:03 11° SW 06:31:17 20° S 06:33:46 10° SE visible
25 Sep ? 05:40:25 20° S 05:40:25 20° S 05:42:53 10° SE visible
26 Sep ? 04:51:49 11° SE 04:51:49 11° SE 04:51:56 10° SE visible
26 Sep ? 06:24:35 13° SW 06:26:07 17° SSW 06:28:21 10° SSE visible
27 Sep ? 05:36:02 17° SSE 05:36:02 17° SSE 05:37:38 10° SE visible
28 Sep ? 06:20:19 12° SSW 06:20:53 12° SSW 06:22:17 10° S visible
29 Sep ? 05:31:56 10° SSE 05:31:56 10° SSE 05:31:58 10° SSE visible
